Location: Buckeye Ditch
(40.9104°N, 122.9517°W)
Time: 00:02:47
(UTC+00:00)

SR - Pass Details

Date: 19 May 2025
Orbit: 570 x 855 km, 66.7° (Epoch: 11 June)

Event Time Altitude Azimuth Distance (km) Brightness Sun altitude
Exits shadow 09:01:16 55° 284° (WNW) 1,019 ? -28.0°
Maximum altitude 09:01:44 57° 304° (WNW) 1,003 ? -28.0°
Drops below altitude 10° 09:07:26 10° 22° (NNE) 2,481 ? -27.7°
Sets 09:09:56 0° 27° (NNE) 3,402 ? -27.6°
